When you browse on this site, cookies collect data to enhance your experience and personalize the content and advertising you see.
Visit our Privacy Policy to learn more. By continuing to use the site, you agree to this use of cookies and data.
  • In Latvia
  • List of Countries
  • For 7 days
  • Water Temperature
  • Satellite Maps
  • Weather Map
  • Weather Widgets
  • user-avatar
    Login

    Hourly Weather Oklahoma City

    Today, 20 July, Saturday

    Time Temperature Precipitation Wind Pressure Humidity
    00:00 +29°C° 0 mm 8 mps 726 mmHg 65%
    01:00 +29°C° 0 mm 7 mps 725 mmHg 66%
    02:00 +28°C° 0 mm 7 mps 725 mmHg 68%
    03:00 +28°C° 0 mm 7 mps 725 mmHg 71%
    04:00 +28°C° 0 mm 7 mps 726 mmHg 73%
    05:00 +27°C° 0 mm 7 mps 726 mmHg 76%
    06:00 +29°C° 0 mm 7 mps 726 mmHg 72%
    07:00 +31°C° 0 mm 8 mps 726 mmHg 68%
    08:00 +32°C° 0 mm 8 mps 727 mmHg 64%
    09:00 +34°C° 0 mm 8 mps 727 mmHg 59%
    10:00 +37°C° 0 mm 8 mps 727 mmHg 53%
    11:00 +38°C° 0 mm 8 mps 727 mmHg 48%
    12:00 +39°C° 0 mm 8 mps 727 mmHg 44%
    13:00 +39°C° 0 mm 8 mps 726 mmHg 41%
    14:00 +40°C° 0 mm 8 mps 726 mmHg 38%
    15:00 +39°C° 0 mm 7 mps 726 mmHg 40%
    16:00 +38°C° 0 mm 7 mps 725 mmHg 43%
    17:00 +35°C° 0 mm 6 mps 725 mmHg 46%
    18:00 +34°C° 0 mm 6 mps 725 mmHg 49%
    19:00 +33°C° 0 mm 6 mps 725 mmHg 52%
    20:00 +30°C° 0 mm 6 mps 726 mmHg 54%
    21:00 +29°C° 0 mm 6 mps 726 mmHg 55%
    22:00 +29°C° 0 mm 6 mps 726 mmHg 56%
    23:00 +28°C° 0 mm 6 mps 726 mmHg 58%

    Tomorrow, 21 July, Sunday

    Time Temperature Precipitation Wind Pressure Humidity
    00:00 +28°C° 0 mm 6 mps 726 mmHg 58%
    01:00 +28°C° 0 mm 6 mps 726 mmHg 59%
    02:00 +27°C° 0 mm 6 mps 726 mmHg 59%
    03:00 +27°C° 0 mm 6 mps 726 mmHg 62%
    04:00 +27°C° 0 mm 6 mps 726 mmHg 66%
    05:00 +26°C° 0 mm 6 mps 727 mmHg 69%
    06:00 +28°C° 0 mm 6 mps 727 mmHg 65%
    07:00 +30°C° 0 mm 7 mps 727 mmHg 62%
    08:00 +32°C° 0 mm 8 mps 728 mmHg 58%
    09:00 +34°C° 0 mm 7 mps 728 mmHg 53%
    10:00 +35°C° 0 mm 7 mps 728 mmHg 48%
    11:00 +38°C° 0 mm 7 mps 728 mmHg 44%
    12:00 +39°C° 0 mm 7 mps 727 mmHg 40%
    13:00 +40°C° 0 mm 6 mps 727 mmHg 37%
    14:00 +41°C° 0 mm 6 mps 727 mmHg 33%
    15:00 +40°C° 0 mm 6 mps 726 mmHg 36%
    16:00 +39°C° 0 mm 6 mps 726 mmHg 39%
    17:00 +38°C° 0 mm 6 mps 726 mmHg 43%
    18:00 +35°C° 0 mm 6 mps 726 mmHg 45%
    19:00 +34°C° 0 mm 7 mps 726 mmHg 48%
    20:00 +32°C° 0 mm 7 mps 726 mmHg 50%
    21:00 +30°C° 0.4 mm 6 mps 726 mmHg 56%
    22:00 +28°C° 0.4 mm 5 mps 727 mmHg 62%
    23:00 +26°C° 0.4 mm 5 mps 727 mmHg 68%

    Day after tomorrow, 22 July, Monday

    Time Temperature Precipitation Wind Pressure Humidity
    00:00 +26°C° 0.2 mm 4 mps 727 mmHg 72%
    01:00 +26°C° 0.2 mm 4 mps 727 mmHg 77%
    02:00 +25°C° 0.2 mm 4 mps 728 mmHg 82%
    03:00 +25°C° 0 mm 5 mps 728 mmHg 83%
    04:00 +23°C° 0 mm 6 mps 728 mmHg 85%
    05:00 +23°C° 0 mm 6 mps 729 mmHg 87%
    06:00 +22°C° 0 mm 7 mps 729 mmHg 84%
    07:00 +22°C° 0 mm 7 mps 730 mmHg 82%
    08:00 +22°C° 0 mm 8 mps 731 mmHg 79%
    09:00 +23°C° 0 mm 8 mps 731 mmHg 75%
    10:00 +24°C° 0 mm 8 mps 731 mmHg 71%
    11:00 +24°C° 0 mm 8 mps 732 mmHg 68%
    12:00 +26°C° 0 mm 8 mps 731 mmHg 65%
    13:00 +27°C° 0 mm 8 mps 731 mmHg 63%
    14:00 +29°C° 0 mm 7 mps 731 mmHg 60%
    15:00 +28°C° 0 mm 7 mps 731 mmHg 61%
    16:00 +28°C° 0 mm 7 mps 731 mmHg 62%
    17:00 +27°C° 0 mm 7 mps 731 mmHg 63%
    18:00 +26°C° 0 mm 6 mps 731 mmHg 66%
    19:00 +24°C° 0 mm 6 mps 731 mmHg 69%
    20:00 +23°C° 0 mm 5 mps 732 mmHg 73%
    21:00 +22°C° 0 mm 5 mps 732 mmHg 76%
    22:00 +21°C° 0 mm 5 mps 732 mmHg 79%
    23:00 +21°C° 0 mm 4 mps 733 mmHg 82%

    23 July, Tuesday

    Time Temperature Precipitation Wind Pressure Humidity
    00:00 +20°C° 0 mm 4 mps 733 mmHg 84%
    01:00 +20°C° 0 mm 4 mps 733 mmHg 86%
    02:00 +19°C° 0 mm 4 mps 733 mmHg 88%
    03:00 +19°C° 0 mm 4 mps 733 mmHg 89%
    04:00 +18°C° 0 mm 4 mps 733 mmHg 91%
    05:00 +18°C° 0 mm 3 mps 733 mmHg 92%
    06:00 +20°C° 0 mm 4 mps 734 mmHg 83%
    07:00 +22°C° 0 mm 5 mps 734 mmHg 74%
    08:00 +25°C° 0 mm 5 mps 734 mmHg 65%
    09:00 +26°C° 0 mm 5 mps 734 mmHg 59%
    10:00 +28°C° 0 mm 6 mps 734 mmHg 52%
    11:00 +29°C° 0 mm 6 mps 734 mmHg 46%
    12:00 +30°C° 0 mm 6 mps 734 mmHg 44%
    13:00 +30°C° 0 mm 6 mps 733 mmHg 43%
    14:00 +32°C° 0 mm 6 mps 733 mmHg 42%
    15:00 +30°C° 0 mm 6 mps 733 mmHg 45%
    16:00 +29°C° 0 mm 6 mps 732 mmHg 48%
    17:00 +28°C° 0 mm 6 mps 732 mmHg 51%
    18:00 +26°C° 0 mm 5 mps 732 mmHg 57%
    19:00 +23°C° 0 mm 4 mps 732 mmHg 63%
    20:00 +22°C° 0 mm 3 mps 733 mmHg 69%
    21:00 +21°C° 0 mm 3 mps 733 mmHg 71%
    22:00 +20°C° 0 mm 3 mps 733 mmHg 74%
    23:00 +19°C° 0 mm 3 mps 733 mmHg 76%

    24 July, Wednesday

    Time Temperature Precipitation Wind Pressure Humidity
    00:00 +19°C° 0 mm 3 mps 733 mmHg 79%
    01:00 +18°C° 0 mm 3 mps 733 mmHg 82%
    02:00 +18°C° 0 mm 3 mps 732 mmHg 84%
    03:00 +18°C° 0 mm 3 mps 733 mmHg 86%
    04:00 +17°C° 0 mm 2 mps 733 mmHg 87%
    05:00 +17°C° 0 mm 2 mps 733 mmHg 88%
    06:00 +19°C° 0 mm 2 mps 733 mmHg 79%
    07:00 +23°C° 0 mm 2 mps 734 mmHg 71%
    08:00 +25°C° 0 mm 2 mps 734 mmHg 62%
    09:00 +26°C° 0 mm 2 mps 734 mmHg 55%
    10:00 +28°C° 0 mm 2 mps 734 mmHg 48%
    11:00 +29°C° 0 mm 2 mps 734 mmHg 41%
    12:00 +30°C° 0 mm 2 mps 733 mmHg 39%
    13:00 +30°C° 0 mm 2 mps 732 mmHg 36%
    14:00 +31°C° 0 mm 2 mps 732 mmHg 34%
    15:00 +31°C° 0 mm 3 mps 731 mmHg 36%
    16:00 +31°C° 0 mm 3 mps 731 mmHg 38%
    17:00 +30°C° 0 mm 3 mps 731 mmHg 40%
    18:00 +28°C° 0 mm 3 mps 731 mmHg 46%
    19:00 +26°C° 0 mm 3 mps 731 mmHg 53%
    20:00 +24°C° 0 mm 3 mps 731 mmHg 59%
    21:00 +22°C° 0 mm 3 mps 731 mmHg 61%
    22:00 +21°C° 0 mm 3 mps 731 mmHg 63%
    23:00 +21°C° 0 mm 3 mps 731 mmHg 65%

    25 July, Thursday

    Time Temperature Precipitation Wind Pressure Humidity
    00:00 +20°C° 0 mm 3 mps 731 mmHg 67%
    01:00 +20°C° 0 mm 3 mps 731 mmHg 68%
    02:00 +20°C° 0 mm 2 mps 731 mmHg 70%
    03:00 +19°C° 0 mm 2 mps 731 mmHg 72%
    04:00 +19°C° 0 mm 2 mps 731 mmHg 74%
    05:00 +19°C° 0 mm 2 mps 732 mmHg 76%
    06:00 +21°C° 0 mm 2 mps 732 mmHg 68%
    07:00 +24°C° 0 mm 3 mps 732 mmHg 61%
    08:00 +26°C° 0 mm 3 mps 733 mmHg 53%
    09:00 +28°C° 0 mm 4 mps 733 mmHg 48%
    10:00 +30°C° 0 mm 4 mps 733 mmHg 43%
    11:00 +32°C° 0 mm 5 mps 733 mmHg 37%
    12:00 +33°C° 0 mm 4 mps 732 mmHg 36%
    13:00 +33°C° 0 mm 4 mps 732 mmHg 34%
    14:00 +34°C° 0 mm 4 mps 731 mmHg 32%
    15:00 +33°C° 0 mm 4 mps 731 mmHg 34%
    16:00 +32°C° 0 mm 4 mps 731 mmHg 36%
    17:00 +32°C° 0 mm 4 mps 730 mmHg 38%
    18:00 +29°C° 0 mm 4 mps 731 mmHg 45%
    19:00 +27°C° 0 mm 4 mps 731 mmHg 51%
    20:00 +25°C° 0 mm 5 mps 731 mmHg 58%
    21:00 +23°C° 0 mm 5 mps 731 mmHg 59%
    22:00 +23°C° 0 mm 5 mps 731 mmHg 60%
    23:00 +22°C° 0 mm 4 mps 732 mmHg 61%
    Show more